Wind_Speed
47 47 45 44 44 43 42 42 42 41 41 40 39 39 39 38 38 38 37 37 37 36 37 36 37 37 37 36 36 35 36 36 36 36 36 36 36 35 35 35 36 36 36
47 47 46 45 44 44 43 43 42 43 42 42 41 40 41 40 40 39 39 38 37 37 36 37 38 38 38 38 38 37 37 38 38 38 37 36 36 36 36 36 37 37 38
47 46 45 44 44 44 44 44 44 44 44 43 43 43 42 42 42 41 40 40 40 39 39 39 39 39 40 40 40 39 39 39 39 38 38 38 37 37 37 37 38 38 38
46 46 45 44 44 45 45 45 45 44 45 45 45 45 44 43 43 42 42 42 42 41 41 41 40 40 41 41 41 40 40 40 39 39 39 39 39 39 39 39 39 39 39
45 46 46 46 45 45 45 45 45 46 45 45 45 46 46 45 45 44 44 43 43 42 42 41 41 42 43 43 43 43 42 41 40 39 40 40 40 41 41 40 40 40 40
47 47 47 47 46 46 46 46 46 46 46 46 46 46 46 45 45 45 46 46 45 44 44 43 44 44 44 43 43 43 42 42 41 41 42 42 42 42 42 41 41 41 41
47 47 47 47 46 45 46 46 46 46 45 45 45 46 47 47 46 46 46 46 46 45 46 46 45 45 44 44 44 44 44 44 43 43 43 43 43 43 43 43 43 43 43
46 47 47 46 46 46 46 46 46 46 47 46 46 46 47 47 47 47 46 46 46 46 45 45 45 45 45 45 45 45 45 45 45 44 43 44 44 44 44 44 45 45 45
46 47 47 47 47 46 45 45 46 46 47 46 46 46 47 48 48 48 47 47 47 46 45 44 44 45 46 45 44 45 46 46 45 45 44 45 45 44 44 45 46 46 46
44 46 46 47 48 47 46 46 46 46 46 47 47 46 46 47 47 47 47 46 47 47 46 46 45 46 46 46 45 45 45 45 45 45 46 46 46 46 46 46 46 46 46
42 44 45 47 47 47 47 46 47 47 46 45 46 46 46 46 44 45 45 45 45 46 46 46 46 47 47 46 45 45 46 45 45 45 46 46 46 46 46 46 46 47 47
41 42 43 45 46 46 46 47 46 46 47 47 46 46 46 46 45 45 45 46 46 46 45 46 47 47 46 45 45 45 46 46 46 46 46 46 46 47 47 46 47 47 48
39 40 42 42 44 46 46 46 47 46 47 47 47 46 46 46 46 46 46 46 47 46 46 46 46 46 46 45 45 45 45 46 46 45 45 46 46 46 46 46 47 47 48
37 38 39 40 41 43 44 45 45 45 46 46 47 47 47 47 47 47 47 47 47 47 47 46 46 46 46 46 46 46 46 46 46 45 45 45 45 45 45 45 46 46 47
36 37 38 40 42 43 43 44 44 44 45 45 46 46 46 47 47 47 47 47 48 48 48 47 47 47 47 47 47 47 46 46 45 45 45 45 45 44 44 45 46 46 47
33 35 36 38 39 41 42 43 44 44 44 44 44 44 44 45 46 47 47 48 48 48 49 49 49 48 48 48 48 47 47 46 46 46 45 45 44 44 45 46 47 47 48
33 33 35 36 39 40 41 42 43 43 43 43 43 43 43 43 44 45 46 46 47 48 48 48 48 49 48 48 47 47 47 47 47 47 46 45 45 46 45 46 48 49 49
33 34 35 35 37 39 40 41 42 42 43 43 43 43 44 44 44 45 45 46 47 47 46 46 46 46 46 46 47 47 47 47 47 47 47 46 46 46 46 47 48 48 48
34 35 35 35 36 37 38 39 40 41 42 43 43 43 44 44 44 44 45 45 45 45 45 45 45 45 44 44 45 45 45 46 46 47 47 46 46 45 46 46 46 46 46
32 33 34 34 35 36 37 37 38 39 40 42 43 43 44 44 44 44 44 44 45 45 45 45 45 44 44 44 44 44 43 43 43 44 43 44 44 45 45 45 44 43 43
31 32 32 33 34 35 36 37 38 39 40 40 41 42 43 43 43 43 44 44 44 44 45 45 45 44 43 43 43 43 42 42 42 42 41 42 43 43 42 42 41 41 42
31 32 33 33 34 35 36 37 37 38 39 40 40 40 41 41 42 42 42 42 43 43 43 43 43 43 43 43 43 43 43 42 41 41 41 41 41 41 41 40 39 39 40
32 32 33 34 35 35 36 36 37 38 39 39 39 39 40 40 40 40 40 41 41 42 42 42 42 42 43 43 43 42 42 41 41 40 41 41 40 39 39 39 39 40 41
31 32 32 32 33 35 36 36 36 36 38 38 39 39 39 40 40 40 40 40 40 40 40 41 41 42 42 41 41 41 41 40 40 40 40 40 39 39 38 38 39 39 40
30 30 31 32 32 32 33 33 34 34 35 36 37 38 38 39 39 39 38 38 38 38 38 39 39 40 40 40 40 40 40 40 40 40 39 38 38 37 37 37 38 39 39
29 29 30 31 30 30 30 31 32 33 33 33 35 36 37 37 37 37 36 36 36 36 36 37 37 37 38 38 39 38 38 38 37 37 37 36 36 36 36 37 37 37 37
Wind_Direction
228 229 231 232 233 235 237 239 240 241 242 244 244 245 247 248 249 251 254 257 259 260 261 263 265 266 268 269 270 272 275 277 278 279 280 280 281 282 283 284 286 288 290
228 230 231 233 234 236 237 238 240 242 243 244 244 246 248 248 249 251 254 255 257 259 262 263 265 266 269 270 270 272 274 276 278 279 279 280 281 281 282 283 285 287 289
227 229 232 234 236 237 238 239 240 242 243 245 246 247 249 249 249 252 254 255 257 260 262 264 265 267 267 269 270 272 274 275 276 277 278 279 280 281 281 282 284 286 288
229 231 233 236 237 239 240 241 242 243 245 246 247 249 250 252 252 253 254 256 258 260 262 264 265 266 268 270 270 272 273 273 274 276 278 279 279 280 281 282 284 285 287
230 232 233 235 238 240 242 243 244 245 247 248 249 250 252 253 253 254 255 256 257 259 262 263 264 266 268 269 271 271 272 273 275 276 278 279 279 280 281 282 283 284 285
231 232 234 236 238 240 242 244 244 246 247 249 250 251 252 253 254 254 255 256 258 259 261 263 265 266 267 268 270 271 271 273 274 276 277 278 279 280 280 282 282 283 285
233 233 236 238 239 241 242 243 245 246 247 249 250 251 251 252 254 256 256 258 259 261 263 265 266 266 268 269 270 271 272 274 274 276 277 278 279 279 280 281 282 283 284
234 235 237 240 240 241 242 243 244 246 247 248 250 251 252 252 254 255 257 260 261 263 264 267 267 267 269 270 271 272 273 274 275 276 277 278 279 280 280 281 282 283 284
235 236 238 240 240 241 242 243 244 245 246 248 250 252 253 253 254 256 257 259 260 262 264 266 267 269 270 270 271 273 274 275 276 276 276 277 278 278 279 281 282 283 284
236 237 237 239 241 242 242 242 243 245 247 249 250 252 254 255 256 256 256 258 261 262 264 265 267 269 270 271 273 274 275 276 276 276 276 277 278 278 279 280 281 283 285
238 240 240 239 241 243 245 245 246 248 249 250 251 252 254 255 257 257 258 259 261 263 264 265 268 269 271 273 274 274 275 276 276 277 278 278 278 279 280 280 281 283 284
240 241 241 241 241 243 245 246 248 249 250 251 252 253 254 256 257 259 260 261 262 263 264 265 268 269 272 273 273 274 275 275 276 277 279 279 279 280 280 280 281 283 284
242 243 243 243 244 245 245 246 248 249 250 252 254 255 256 257 258 260 262 262 263 263 265 266 267 269 271 272 274 275 276 275 275 278 279 280 280 280 280 280 281 282 284
244 244 244 244 244 245 246 247 248 250 251 253 254 256 257 258 259 261 262 262 262 263 265 266 268 269 270 271 273 274 275 275 275 277 279 280 280 280 281 280 281 283 284
245 246 246 246 246 246 247 247 248 250 252 253 255 257 258 258 259 260 261 261 262 264 266 267 268 269 270 271 273 274 274 275 276 277 278 280 280 281 282 281 282 284 285
245 246 246 246 246 247 248 248 250 252 253 254 255 257 257 258 259 260 261 261 263 265 266 268 269 269 270 272 273 274 274 275 275 277 279 280 281 282 282 283 284 285 287
248 249 249 249 248 248 249 249 250 251 253 254 255 256 257 258 260 260 260 263 265 266 268 269 270 270 270 271 272 273 275 276 276 277 279 280 281 282 283 283 284 286 288
250 250 250 250 250 250 250 250 250 252 254 255 255 256 257 259 260 262 263 264 265 266 268 268 270 271 271 271 272 274 274 275 276 277 279 280 280 281 282 284 285 286 288
250 250 250 250 250 250 250 252 253 254 254 255 256 257 258 260 261 263 264 265 266 267 267 268 269 270 271 272 273 274 275 275 276 278 279 280 280 281 283 284 285 286 287
252 253 252 251 251 251 251 252 253 253 254 255 256 258 259 261 262 263 264 266 266 267 267 268 269 270 271 272 273 274 275 276 277 279 280 280 281 281 282 283 284 285 286
255 254 253 252 252 253 253 254 254 254 255 256 257 258 260 261 262 264 265 265 266 266 267 268 269 270 271 272 273 274 276 277 277 278 278 279 281 282 282 283 284 285 286
256 255 254 254 254 254 255 256 256 255 256 256 257 259 260 261 262 264 265 265 265 266 267 268 269 269 270 271 273 275 276 277 277 278 278 279 281 282 282 283 284 285 287
258 258 257 255 256 257 257 257 257 257 257 257 257 258 259 261 263 264 265 265 266 267 267 268 268 270 271 271 273 274 275 276 277 277 278 279 280 282 282 282 284 285 286
259 258 258 257 257 257 257 257 257 256 257 258 258 258 260 261 262 262 264 265 266 267 267 268 269 270 271 271 271 272 274 276 277 278 278 279 279 280 281 282 284 286 287
258 258 258 258 259 259 259 258 258 259 259 259 258 259 260 261 261 262 264 265 265 267 268 269 269 270 270 270 271 272 274 275 277 277 278 278 278 279 281 283 285 287 287
257 257 258 260 260 259 259 260 261 262 261 260 260 260 260 261 261 262 263 264 266 267 269 270 270 270 270 270 271 273 275 276 276 276 278 278 278 280 282 284 286 287 287
Height
5761 5766 5771 5776 5780 5784 5787 5791 5794 5796 5799 5801 5803 5805 5806 5808 5809 5811 5812 5812 5813 5814 5814 5815 5815 5815 5815 5815 5815 5814 5813 5812 5810 5809 5808 5806 5804 5802 5801 5799 5798 5796 5793
5752 5757 5762 5767 5771 5776 5779 5782 5785 5788 5790 5792 5795 5797 5798 5799 5801 5802 5803 5804 5805 5806 5806 5807 5807 5807 5807 5807 5806 5806 5805 5804 5802 5801 5799 5798 5797 5795 5793 5792 5790 5788 5785
5743 5748 5753 5758 5763 5766 5770 5773 5776 5779 5781 5783 5786 5787 5788 5790 5792 5793 5795 5796 5796 5797 5798 5799 5799 5799 5799 5798 5798 5797 5796 5795 5794 5793 5791 5790 5789 5788 5786 5784 5782 5780 5777
5734 5739 5744 5748 5753 5757 5760 5764 5767 5769 5771 5774 5776 5778 5779 5781 5783 5785 5786 5786 5787 5788 5789 5790 5790 5790 5790 5790 5789 5788 5787 5787 5786 5785 5783 5782 5780 5779 5778 5776 5774 5772 5769
5724 5730 5734 5739 5743 5747 5750 5753 5756 5759 5762 5764 5766 5768 5770 5771 5773 5775 5776 5777 5778 5779 5780 5780 5780 5780 5780 5780 5780 5779 5778 5778 5777 5776 5774 5773 5771 5769 5768 5767 5765 5763 5760
5715 5719 5724 5729 5733 5737 5740 5743 5746 5749 5751 5754 5756 5758 5759 5761 5763 5764 5766 5767 5769 5769 5770 5770 5771 5771 5771 5771 5770 5769 5768 5768 5767 5766 5765 5763 5762 5760 5759 5757 5756 5754 5751
5705 5710 5714 5719 5723 5727 5730 5733 5736 5739 5741 5743 5745 5747 5749 5751 5753 5754 5755 5757 5759 5759 5760 5760 5760 5761 5761 5760 5760 5760 5759 5758 5757 5756 5755 5753 5752 5750 5749 5747 5745 5744 5742
5695 5700 5704 5709 5713 5716 5719 5722 5725 5728 5730 5733 5735 5736 5738 5740 5742 5744 5746 5747 5748 5749 5750 5750 5750 5750 5750 5750 5750 5750 5749 5748 5747 5746 5744 5743 5742 5740 5738 5737 5735 5733 5732
5685 5690 5694 5698 5702 5706 5709 5712 5715 5717 5720 5722 5724 5726 5728 5730 5732 5734 5735 5737 5738 5739 5739 5739 5739 5739 5740 5740 5739 5739 5738 5737 5736 5735 5733 5732 5730 5729 5727 5726 5724 5722 5720
5675 5680 5684 5687 5691 5695 5698 5701 5704 5707 5709 5712 5714 5717 5718 5720 5721 5723 5725 5726 5727 5728 5729 5730 5729 5729 5729 5729 5729 5728 5727 5726 5725 5723 5722 5721 5719 5718 5716 5714 5713 5710 5708
5666 5670 5673 5677 5681 5684 5688 5691 5694 5697 5699 5702 5704 5706 5708 5709 5711 5713 5714 5715 5717 5718 5718 5719 5719 5719 5719 5718 5718 5717 5716 5715 5714 5712 5711 5710 5708 5706 5705 5703 5701 5699 5696
5657 5660 5663 5667 5670 5674 5678 5681 5684 5686 5689 5691 5693 5695 5697 5699 5701 5702 5703 5704 5705 5706 5707 5707 5708 5708 5707 5707 5706 5705 5705 5704 5703 5702 5700 5699 5697 5695 5693 5692 5690 5687 5684
5648 5651 5654 5657 5660 5664 5667 5670 5673 5676 5678 5681 5683 5685 5687 5688 5690 5691 5693 5694 5694 5695 5696 5696 5696 5696 5696 5696 5695 5694 5693 5692 5691 5691 5689 5687 5685 5684 5682 5680 5678 5675 5673
5639 5641 5644 5647 5650 5653 5657 5660 5663 5665 5668 5670 5672 5674 5676 5678 5679 5680 5682 5683 5683 5684 5684 5684 5684 5684 5684 5684 5684 5683 5682 5681 5680 5679 5678 5676 5674 5672 5670 5668 5666 5663 5661
5630 5632 5635 5637 5640 5643 5646 5649 5652 5655 5657 5659 5661 5663 5665 5666 5668 5669 5670 5671 5672 5673 5673 5673 5673 5673 5673 5672 5672 5671 5671 5670 5669 5668 5666 5664 5662 5660 5658 5656 5654 5651 5648
5622 5623 5626 5628 5630 5633 5636 5639 5642 5644 5646 5648 5650 5652 5653 5655 5656 5658 5658 5659 5660 5661 5661 5661 5661 5661 5661 5660 5660 5659 5659 5658 5657 5656 5655 5653 5651 5648 5647 5644 5642 5639 5636
5613 5615 5617 5618 5621 5623 5626 5629 5631 5633 5635 5637 5639 5641 5642 5644 5645 5646 5647 5648 5648 5649 5649 5649 5649 5649 5648 5648 5648 5647 5646 5646 5645 5644 5643 5641 5639 5637 5635 5633 5630 5627 5623
5605 5606 5608 5610 5611 5613 5616 5618 5620 5623 5625 5627 5629 5630 5631 5633 5633 5634 5635 5636 5636 5637 5637 5637 5637 5637 5636 5636 5635 5635 5634 5633 5633 5632 5630 5629 5627 5625 5623 5621 5618 5615 5612
5596 5598 5599 5601 5602 5604 5606 5608 5610 5612 5614 5616 5617 5619 5620 5621 5622 5623 5624 5624 5625 5625 5625 5625 5625 5625 5625 5624 5623 5622 5622 5621 5621 5619 5618 5616 5615 5613 5610 5608 5606 5603 5600
5587 5589 5590 5591 5593 5594 5596 5598 5600 5602 5603 5605 5606 5607 5609 5610 5611 5611 5612 5612 5613 5613 5613 5614 5614 5613 5613 5613 5612 5611 5610 5610 5609 5608 5606 5604 5603 5600 5598 5595 5593 5591 5588
5579 5580 5581 5583 5584 5585 5586 5588 5590 5591 5592 5593 5595 5596 5597 5598 5599 5600 5600 5601 5601 5602 5602 5602 5602 5602 5602 5602 5601 5600 5599 5598 5598 5596 5595 5593 5591 5588 5586 5583 5581 5579 5576
5570 5571 5572 5573 5574 5575 5576 5578 5579 5580 5581 5583 5584 5585 5586 5586 5587 5588 5588 5589 5589 5590 5590 5591 5591 5590 5590 5590 5589 5589 5588 5587 5586 5585 5584 5582 5579 5577 5575 5573 5571 5568 5565
5561 5561 5562 5564 5564 5565 5566 5567 5568 5569 5570 5571 5572 5573 5574 5575 5576 5577 5577 5577 5578 5578 5579 5579 5579 5579 5579 5579 5578 5577 5576 5575 5574 5573 5572 5570 5568 5566 5564 5562 5560 5557 5555
5551 5552 5553 5554 5554 5555 5556 5557 5557 5558 5559 5560 5561 5562 5563 5564 5565 5565 5566 5566 5567 5567 5567 5568 5568 5567 5567 5567 5566 5566 5565 5564 5563 5562 5560 5559 5557 5556 5554 5552 5550 5547 5544
5541 5542 5543 5544 5544 5545 5546 5546 5547 5547 5548 5549 5550 5551 5552 5553 5553 5554 5555 5555 5556 5556 5557 5556 5556 5556 5556 5555 5555 5554 5554 5553 5552 5550 5549 5548 5547 5545 5543 5542 5539 5537 5534
5533 5533 5534 5534 5535 5535 5536 5536 5537 5537 5538 5538 5539 5540 5541 5542 5543 5544 5544 5544 5545 5545 5545 5545 5545 5545 5545 5544 5544 5543 5543 5542 5541 5539 5538 5537 5536 5535 5533 5531 5529 5526 5524